• In Hungary
  • List of Countries
  • For 7 days
  • Water Temperature
  • Satellite Maps
  • Weather Map
  • News
  • Weather Widgets
  • user-avatar
    Login

    Hourly Weather David

    Today, 20 January, Saturday

    Time Temperature Precipitation Wind Pressure Humidity
    00:00 +26°C° 0.1 mm 2 mps 754 mmHg 85%
    01:00 +25°C° 0.1 mm 2 mps 754 mmHg 85%
    02:00 +25°C° 0.1 mm 2 mps 754 mmHg 85%
    03:00 +25°C° 0.1 mm 2 mps 754 mmHg 85%
    04:00 +25°C° 0.1 mm 2 mps 753 mmHg 85%
    05:00 +25°C° 0.1 mm 2 mps 753 mmHg 85%
    06:00 +25°C° 0.1 mm 1 mps 754 mmHg 85%
    07:00 +25°C° 0.1 mm 1 mps 754 mmHg 85%
    08:00 +27°C° 0 mm 1 mps 754 mmHg 80%
    09:00 +28°C° 0 mm 2 mps 755 mmHg 75%
    10:00 +30°C° 0 mm 2 mps 755 mmHg 69%
    11:00 +31°C° 0 mm 2 mps 755 mmHg 66%
    12:00 +33°C° 0 mm 3 mps 754 mmHg 63%
    13:00 +34°C° 0 mm 3 mps 754 mmHg 59%
    14:00 +33°C° 0.2 mm 3 mps 753 mmHg 62%
    15:00 +33°C° 0.2 mm 3 mps 753 mmHg 65%
    16:00 +31°C° 0.2 mm 3 mps 752 mmHg 68%
    17:00 +30°C° 0.3 mm 3 mps 752 mmHg 74%
    18:00 +28°C° 0.3 mm 2 mps 752 mmHg 80%
    19:00 +26°C° 0.3 mm 2 mps 752 mmHg 86%
    20:00 +26°C° 0.2 mm 2 mps 753 mmHg 85%
    21:00 +26°C° 0.2 mm 2 mps 753 mmHg 83%
    22:00 +26°C° 0.2 mm 2 mps 754 mmHg 81%
    23:00 +26°C° 0 mm 2 mps 754 mmHg 81%

    Tomorrow, 21 January, Sunday

    Time Temperature Precipitation Wind Pressure Humidity
    00:00 +26°C° 0 mm 2 mps 754 mmHg 80%
    01:00 +25°C° 0 mm 2 mps 753 mmHg 80%
    02:00 +25°C° 0 mm 2 mps 753 mmHg 81%
    03:00 +25°C° 0 mm 2 mps 752 mmHg 81%
    04:00 +25°C° 0 mm 2 mps 752 mmHg 82%
    05:00 +25°C° 0 mm 2 mps 752 mmHg 82%
    06:00 +25°C° 0 mm 2 mps 752 mmHg 82%
    07:00 +25°C° 0 mm 1 mps 753 mmHg 83%
    08:00 +27°C° 0 mm 1 mps 753 mmHg 77%
    09:00 +29°C° 0 mm 1 mps 754 mmHg 71%
    10:00 +31°C° 0 mm 1 mps 754 mmHg 65%
    11:00 +32°C° 0 mm 2 mps 754 mmHg 63%
    12:00 +33°C° 0 mm 3 mps 753 mmHg 62%
    13:00 +34°C° 0 mm 3 mps 753 mmHg 61%
    14:00 +33°C° 0.3 mm 3 mps 752 mmHg 64%
    15:00 +33°C° 0.3 mm 3 mps 751 mmHg 68%
    16:00 +31°C° 0.3 mm 3 mps 750 mmHg 71%
    17:00 +29°C° 0.1 mm 2 mps 751 mmHg 77%
    18:00 +28°C° 0.1 mm 2 mps 751 mmHg 83%
    19:00 +26°C° 0.1 mm 2 mps 751 mmHg 89%
    20:00 +26°C° 0.3 mm 2 mps 752 mmHg 86%
    21:00 +26°C° 0.3 mm 2 mps 752 mmHg 84%
    22:00 +26°C° 0.3 mm 2 mps 753 mmHg 82%
    23:00 +26°C° 0 mm 2 mps 753 mmHg 81%

    Day after tomorrow, 22 January, Monday

    Time Temperature Precipitation Wind Pressure Humidity
    00:00 +25°C° 0 mm 2 mps 753 mmHg 80%
    01:00 +25°C° 0 mm 2 mps 752 mmHg 80%
    02:00 +25°C° 0 mm 2 mps 752 mmHg 80%
    03:00 +25°C° 0 mm 2 mps 752 mmHg 80%
    04:00 +25°C° 0 mm 2 mps 751 mmHg 80%
    05:00 +25°C° 0 mm 2 mps 751 mmHg 80%
    06:00 +25°C° 0 mm 2 mps 752 mmHg 79%
    07:00 +25°C° 0 mm 2 mps 752 mmHg 79%
    08:00 +27°C° 0 mm 2 mps 753 mmHg 73%
    09:00 +29°C° 0 mm 2 mps 753 mmHg 68%
    10:00 +31°C° 0 mm 2 mps 754 mmHg 62%
    11:00 +32°C° 0 mm 2 mps 753 mmHg 62%
    12:00 +33°C° 0 mm 3 mps 753 mmHg 62%
    13:00 +34°C° 0 mm 3 mps 752 mmHg 62%
    14:00 +33°C° 0.4 mm 3 mps 751 mmHg 65%
    15:00 +33°C° 0.4 mm 3 mps 751 mmHg 68%
    16:00 +31°C° 0.4 mm 3 mps 750 mmHg 71%
    17:00 +29°C° 0.9 mm 3 mps 750 mmHg 77%
    18:00 +28°C° 0.9 mm 2 mps 751 mmHg 83%
    19:00 +26°C° 0.9 mm 2 mps 751 mmHg 89%
    20:00 +26°C° 0.9 mm 2 mps 752 mmHg 88%
    21:00 +26°C° 0.9 mm 2 mps 753 mmHg 87%
    22:00 +26°C° 0.9 mm 2 mps 753 mmHg 86%
    23:00 +26°C° 0.3 mm 2 mps 753 mmHg 85%

    23 January, Tuesday

    Time Temperature Precipitation Wind Pressure Humidity
    00:00 +25°C° 0.3 mm 2 mps 753 mmHg 84%
    01:00 +25°C° 0.3 mm 2 mps 752 mmHg 83%
    02:00 +25°C° 0 mm 2 mps 752 mmHg 82%
    03:00 +25°C° 0 mm 2 mps 751 mmHg 81%
    04:00 +25°C° 0 mm 2 mps 751 mmHg 80%
    05:00 +25°C° 0 mm 2 mps 751 mmHg 80%
    06:00 +25°C° 0 mm 2 mps 752 mmHg 80%
    07:00 +25°C° 0 mm 1 mps 752 mmHg 79%
    08:00 +27°C° 0 mm 1 mps 753 mmHg 74%
    09:00 +29°C° 0 mm 1 mps 753 mmHg 68%
    10:00 +31°C° 0 mm 1 mps 754 mmHg 62%
    11:00 +31°C° 0 mm 2 mps 753 mmHg 61%
    12:00 +32°C° 0 mm 2 mps 753 mmHg 60%
    13:00 +34°C° 0 mm 2 mps 752 mmHg 59%
    14:00 +32°C° 0.3 mm 2 mps 751 mmHg 63%
    15:00 +31°C° 0.3 mm 2 mps 751 mmHg 66%
    16:00 +31°C° 0.3 mm 3 mps 750 mmHg 70%
    17:00 +29°C° 0.4 mm 2 mps 751 mmHg 77%
    18:00 +28°C° 0.4 mm 1 mps 751 mmHg 83%
    19:00 +26°C° 0.4 mm 1 mps 751 mmHg 89%
    20:00 +26°C° 0.1 mm 1 mps 752 mmHg 89%
    21:00 +25°C° 0.1 mm 1 mps 753 mmHg 88%
    22:00 +25°C° 0.1 mm 1 mps 753 mmHg 87%
    23:00 +25°C° 0 mm 1 mps 753 mmHg 86%

    24 January, Wednesday

    Time Temperature Precipitation Wind Pressure Humidity
    00:00 +25°C° 0 mm 1 mps 753 mmHg 84%
    01:00 +25°C° 0 mm 1 mps 752 mmHg 83%
    02:00 +25°C° 0.1 mm 1 mps 752 mmHg 82%
    03:00 +24°C° 0.1 mm 1 mps 752 mmHg 81%
    04:00 +24°C° 0.1 mm 2 mps 751 mmHg 80%
    05:00 +24°C° 0 mm 2 mps 752 mmHg 80%
    06:00 +24°C° 0 mm 2 mps 752 mmHg 79%
    07:00 +24°C° 0 mm 2 mps 753 mmHg 79%
    08:00 +26°C° 0 mm 1 mps 753 mmHg 73%
    09:00 +29°C° 0 mm 1 mps 753 mmHg 67%
    10:00 +31°C° 0 mm 1 mps 754 mmHg 62%
    11:00 +31°C° 0.1 mm 2 mps 753 mmHg 62%
    12:00 +32°C° 0.1 mm 2 mps 753 mmHg 62%
    13:00 +34°C° 0.1 mm 3 mps 752 mmHg 62%
    14:00 +33°C° 0.3 mm 3 mps 751 mmHg 66%
    15:00 +31°C° 0.3 mm 3 mps 751 mmHg 70%
    16:00 +30°C° 0.3 mm 3 mps 750 mmHg 74%
    17:00 +29°C° 0.5 mm 2 mps 751 mmHg 80%
    18:00 +28°C° 0.5 mm 1 mps 751 mmHg 86%
    19:00 +26°C° 0.5 mm 1 mps 751 mmHg 92%
    20:00 +26°C° 0 mm 1 mps 752 mmHg 91%
    21:00 +25°C° 0 mm 1 mps 752 mmHg 91%
    22:00 +25°C° 0 mm 2 mps 753 mmHg 90%
    23:00 +25°C° 0.1 mm 2 mps 753 mmHg 89%

    25 January, Thursday

    Time Temperature Precipitation Wind Pressure Humidity
    00:00 +25°C° 0.1 mm 2 mps 753 mmHg 88%
    01:00 +24°C° 0.1 mm 2 mps 752 mmHg 87%
    02:00 +24°C° 0.1 mm 2 mps 752 mmHg 86%
    03:00 +24°C° 0.1 mm 2 mps 752 mmHg 85%
    04:00 +24°C° 0.1 mm 2 mps 752 mmHg 84%
    05:00 +24°C° 0.1 mm 2 mps 752 mmHg 84%
    06:00 +24°C° 0.1 mm 1 mps 752 mmHg 84%
    07:00 +24°C° 0.1 mm 1 mps 753 mmHg 84%
    08:00 +26°C° 0 mm 1 mps 753 mmHg 77%
    09:00 +28°C° 0 mm 1 mps 753 mmHg 71%
    10:00 +31°C° 0 mm 1 mps 754 mmHg 64%
    11:00 +31°C° 0 mm 1 mps 753 mmHg 63%
    12:00 +32°C° 0 mm 2 mps 753 mmHg 61%
    13:00 +34°C° 0 mm 2 mps 752 mmHg 59%
    14:00 +33°C° 0.2 mm 3 mps 752 mmHg 63%
    15:00 +33°C° 0.2 mm 3 mps 751 mmHg 67%
    16:00 +31°C° 0.2 mm 3 mps 751 mmHg 70%
    17:00 +29°C° 0.2 mm 2 mps 751 mmHg 77%
    18:00 +28°C° 0.2 mm 2 mps 751 mmHg 83%
    19:00 +26°C° 0.2 mm 2 mps 752 mmHg 90%
    20:00 +26°C° 0.1 mm 2 mps 752 mmHg 89%
    21:00 +26°C° 0.1 mm 2 mps 753 mmHg 88%
    22:00 +25°C° 0.1 mm 2 mps 753 mmHg 87%
    23:00 +25°C° 0 mm 2 mps 753 mmHg 86%
    Show more